Bryce Canyon, UT

4:19 AM MST on December 16, 2019 (GMT -0700)
Bryce Canyon

Weather History for KBCE - October, 2019

Change the Weather History Date:

Monday, October 14, 2019

  Actual Average Record
Temperature  
Mean Temperature 42 °F -  
Max Temperature 63 °F 59 °F 75 °F (2015)
Min Temperature 21 °F 28 °F 15 °F (1981)
Degree Days  
Heating Degree Days 23    
Moisture  
Dew Point 12 °F    
Average Humidity 33    
Maximum Humidity 55    
Minimum Humidity 11    
Precipitation  
Precipitation 0.00 in - - ()
Sea Level Pressure  
Sea Level Pressure 30.01 in    
Wind  
Wind Speed 7 mph (West)    
Max Wind Speed 10 mph    
Max Gust Speed 17 mph    
Visibility 9 miles    
Events Rain    
Averages and records for this station are not official NWS values.
T = Trace of Precipitation, MM = Missing Value Source: NWS Daily Summary

Daily Weather History Graph

Daily Weather History Graph

Search for Another Location

Airport or City:

Astronomy

Oct. 14, 2019 Rise Set
Actual Time 7:35 AM MDT 6:52 PM MDT
Civil Twilight 7:09 AM MDT 7:19 PM MDT
Nautical Twilight 6:39 AM MDT 7:49 PM MDT
Astronomical Twilight 6:08 AM MDT 8:19 PM MDT
Moon 7:45 PM MDT (10/14) 8:11 AM MDT (10/14)
Length of Visible Light 12h 09m
Length of Day
11h 16m
Full, 99% of the Moon is Illuminated
Oct 14
Full
Oct 21
Last Quarter
Oct 27
New
Nov 4
First Quarter
Nov 12
Full

Hourly Weather History & Observations

Time (MDT) Temp. Windchill Dew Point Humidity Pressure Visibility Wind Dir Wind Speed Gust Speed Precip Events Conditions
12:53 AM 27.0 °F 19.5 °F 6.1 °F 41% 29.96 in 10.0 mi West 6.9 mph - N/A   Clear
1:53 AM 26.1 °F 18.4 °F 6.1 °F 43% 29.96 in 10.0 mi WSW 6.9 mph - N/A   Clear
2:53 AM 25.0 °F 17.1 °F 7.0 °F 46% 29.96 in 10.0 mi WSW 6.9 mph - N/A   Clear
3:53 AM 24.1 °F 16.0 °F 7.0 °F 48% 29.95 in 10.0 mi WSW 6.9 mph - N/A   Clear
4:53 AM 25.0 °F 19.3 °F 8.1 °F 49% 29.94 in 10.0 mi WNW 4.6 mph - N/A   Clear
5:53 AM 21.0 °F 14.6 °F 7.0 °F 55% 29.97 in 5.0 mi West 4.6 mph - N/A   Haze
6:53 AM 25.0 °F 18.1 °F 10.0 °F 53% 30.00 in 10.0 mi West 5.8 mph - N/A   Clear
7:53 AM 25.0 °F 19.3 °F 10.0 °F 53% 30.07 in 10.0 mi West 4.6 mph - N/A   Clear
8:53 AM 34.0 °F 27.2 °F 12.0 °F 40% 30.06 in 10.0 mi West 8.1 mph - N/A   Clear
9:36 AM 44.1 °F 42.5 °F 14.0 °F 30% 30.18 in 2.0 mi WSW 3.5 mph - N/A   Haze
9:53 AM 48.9 °F - 15.1 °F 26% 30.01 in 2.5 mi West 4.6 mph - N/A   Haze
10:03 AM 50.0 °F - 15.1 °F 25% 30.18 in 5.0 mi Calm Calm - 0.00 in Rain Light Rain
10:53 AM 54.0 °F - 19.0 °F 25% 30.00 in 10.0 mi WSW 8.1 mph - 0.00 in   Unknown
11:53 AM 57.0 °F - 17.1 °F 21% 29.99 in 10.0 mi North - - N/A   Clear
12:53 PM 57.9 °F - 18.0 °F 21% 29.97 in 10.0 mi ESE 10.4 mph - N/A   Clear
1:53 PM 60.1 °F - 14.0 °F 16% 29.96 in 10.0 mi Variable 5.8 mph 17.3 mph N/A   Clear
2:53 PM 60.1 °F - 14.0 °F 16% 29.94 in 10.0 mi Variable 4.6 mph - N/A   Clear
3:53 PM 62.1 °F - 10.0 °F 13% 29.94 in 10.0 mi North - - N/A   Clear
4:53 PM 63.0 °F - 8.1 °F 11% 29.94 in 10.0 mi WNW 10.4 mph - N/A   Clear
5:53 PM 60.1 °F - 15.1 °F 17% 29.97 in 10.0 mi NW 8.1 mph - N/A   Clear
6:53 PM 54.0 °F - 14.0 °F 21% 30.00 in 10.0 mi WNW 10.4 mph - N/A   Clear
7:53 PM 46.9 °F - 15.1 °F 28% 30.05 in 10.0 mi West 8.1 mph - N/A   Clear
8:53 PM 43.0 °F 39.5 °F 10.9 °F 27% 30.05 in 10.0 mi West 5.8 mph - N/A   Clear
9:53 PM 35.1 °F 29.3 °F 12.9 °F 40% 30.05 in 10.0 mi West 6.9 mph - N/A   Clear
10:53 PM 30.9 °F 24.3 °F 10.0 °F 42% 30.06 in 10.0 mi WSW 6.9 mph - N/A   Clear
11:53 PM 30.0 °F 21.1 °F 10.0 °F 43% 30.06 in 10.0 mi West 10.4 mph - N/A   Clear